www.pogodaiklimat.ru

Погода и климат >> Архив погоды >> Норвегия >> Juvvasshoe


ПОГОДА в Juvvasshoe

  • Прогноз погоды в Juvvasshoe
  • Монитор погоды в Juvvasshoe
  • Климат города

АРХИВ ПОГОДЫ в Juvvasshoe

Время (UTC), дата Ветер
(напр.,м/с)
 
Видим.   Явления Облачность Т
(С)
Тd
(С)
f
(%)
Тe
(С)
Тes
(С)
Комфортность P
(гПа)
Po
(гПа)
Тmin
(С)
Tmax
(С)
R
(мм)
R24
(мм)
S
(см)
01 12.11 ЮВ 7-7
{8}
н/о н/о -2.5 -9 -9 1002.5 1003.0
02 12.11 ЮВ 6-8
{8}
н/о н/о -2.7 -8 -8 1002.6 1003.0
03 12.11 ЮВ 5-6
{6}
н/о н/о -2.8 -8 -8 1002.3 1002.0
04 12.11 ЮВ 7-7
{9}
н/о н/о -2.5 -9 -9 1001.4 1001.0
05 12.11 ЮВ 5-7
{7}
н/о н/о -2.6 -8 -8 1001.8 1002.0
06 12.11 ЮВ 3-7
{9}
н/о н/о -2.6 -6 -6 1002.2 1002.0 -2.8 -1.6 18
07 12.11 ЮВ 1-4
{4}
н/о н/о -2.9 -3.0 99 -5 -5 1003.1 1003.0
08 12.11 ЮВ 1-4
{4}
н/о н/о -3.4 -3.6 99 -6 -6 1004.3 1004.0
09 12.11 ЮВ 1-2
{3}
н/о н/о -3.4 -3.8 97 -6 -6 1004.5 1005.0
10 12.11 ЮЗ 7-4
{12}
н/о н/о -3.1 -3.6 96 -11 -11 1004.9 1005.0
11 12.11 ЮЗ 6-9
{11}
н/о н/о -2.6 -3.1 96 -10 -10 1005.0 1005.0
12 12.11 З 5-10
{13}
н/о н/о -2.6 -3.0 97 -10 -10 1005.6 1006.0
13 12.11 З 6-9
{13}
н/о н/о -2.9 -3.3 97 -10 -10 1006.3 1006.0
14 12.11 З 3-12
{14}
н/о н/о -3.9 -4.7 94 -9 -9 1007.5 1008.0
15 12.11 З 7-9
{16}
н/о н/о -3.7 -4.6 93 -12 -12 1007.8 1008.0
16 12.11 ЮЗ 10-12
{17}
н/о н/о -3.3 -5.3 86 -13 -13 1007.6 1008.0
17 12.11 ЮЗ 12-16
{19}
н/о н/о -3.2 -4.3 92 -13 -13 1007.5 1008.0
18 12.11 ЮЗ 11-15
{19}
н/о н/о -3.2 -4.7 89 -13 -13 1007.8 1008.0 -4.4 -2.3
19 12.11 ЮЗ 8-13
{16}
н/о н/о -3.4 -5.0 89 -12 -12 1008.5 1009.0
20 12.11 С 1-13
{13}
н/о н/о -4.3 -4.9 96 -7 -7 1009.7 1010.0
21 12.11 ЮЗ 9-7
{14}
н/о н/о -3.6 -5.7 85 -12 -12 1008.7 1009.0
22 12.11 ЮЗ 8-13
{13}
н/о н/о -3.7 -5.7 86 -12 -12 1008.9 1009.0
23 12.11 ЮЗ 8-11
{13}
н/о н/о -3.8 -5.9 85 -12 -12 1009.1 1009.0
00 13.11 ЮЗ 9-12
{16}
н/о н/о -3.6 -5.9 84 -12 -12 1008.8 1009.0
01 13.11 ЮЗ 6-12
{13}
н/о н/о -3.0 -5.7 82 -10 -10 1008.4 1008.0
02 13.11 Ю 5-6
{7}
н/о н/о -4.2 -4.8 96 -11 -11 1008.9 1009.0
03 13.11 ЮЗ 6-5
{8}
н/о н/о -3.5 -4.4 93 -11 -11 1008.2 1008.0
04 13.11 ЮЗ 7-7
{11}
н/о н/о -3.1 -5.2 85 -11 -11 1007.7 1008.0
05 13.11 Ю 6-8
{9}
н/о н/о -4.3 -5.5 91 -12 -12 1008.5 1009.0
06 13.11 Ю 4-7
{13}
н/о н/о -4.5 -6.3 87 -11 -11 1008.7 1009.0 -5.1 -3.0 17
07 13.11 ЮЗ 5-7
{7}
н/о н/о -3.7 -5.1 90 -11 -11 1008.3 1008.0
08 13.11 Ю 7-7
{10}
н/о н/о -4.0 -5.8 87 -12 -12 1008.5 1009.0
09 13.11 Ю 2-8
{8}
н/о н/о -4.1 -5.6 89 -8 -8 1009.1 1009.0
10 13.11 Ю 5-4
{6}
н/о н/о -5.3 -6.5 91 -13 -13 1009.7 1010.0
11 13.11 Ю 7-6
{9}
н/о н/о -4.6 -5.4 94 -13 -13 1009.1 1009.0
12 13.11 Ю 5-12
{12}
н/о н/о -4.3 -5.0 95 -11 -11 1008.8 1009.0
13 13.11 ЮЗ 7-6
{9}
н/о н/о -3.2 -5.4 85 -11 -11 1007.9 1008.0
14 13.11 ЮЗ 7-9
{11}
н/о н/о -3.2 -5.1 87 -11 -11 1007.9 1008.0
15 13.11 З 8-11
{11}
н/о н/о -4.1 -5.5 90 -13 -13 1009.1 1009.0
16 13.11 ЮЗ 5-9
{9}
н/о н/о -4.2 -5.8 89 -11 -11 1009.9 1010.0
17 13.11 ЮЗ 5-8
{8}
н/о н/о -4.2 -5.6 90 -11 -11 1010.5 1011.0
18 13.11 Ю 3-9
{11}
н/о н/о -4.3 -6.6 84 -10 -10 1010.9 904.7 -5.3 -2.8
19 13.11 ЮЗ 4-4
{7}
н/о н/о -4.1 -5.6 89 -10 -10 1011.3 1011.0
20 13.11 З 5-8
{9}
н/о н/о -4.1 -5.3 91 -11 -11 1011.8 800.3
21 13.11 З 6-8
{13}
н/о н/о -3.7 -4.4 95 -11 -11 1012.0 800.8
22 13.11 ЮЗ 6-12
{12}
н/о н/о -3.2 -4.8 89 -11 -11 1012.1 801.2
23 13.11 З 6-11
{13}
н/о н/о -3.4 -4.7 91 -11 -11 1012.9 801.8
00 14.11 З 7-13
{13}
н/о н/о -3.3 -4.7 90 -11 -11 1013.5 802.2
01 14.11 З 13-11
{17}
н/о н/о -3.5 -5.3 87 -14 -14 1013.8 802.3
02 14.11 З 10-16
{18}
н/о н/о -3.6 -4.9 91 -13 -13 1014.4 802.7
03 14.11 ЮЗ 5-13
{16}
н/о н/о -3.7 -5.5 87 -11 -11 1015.2 803.3
04 14.11 З 4-10
{10}
н/о н/о -4.5 -5.8 91 -11 -11 1016.1 803.5
05 14.11 ЮЗ 3-6
{7}
н/о н/о -4.7 -6.5 87 -10 -10 1016.3 803.5
06 14.11 З 7-5
{18}
н/о н/о -4.2 -7.3 79 -12 -12 1016.6 803.9 -5.1 -2.8 17
07 14.11 С 2-9
{9}
н/о н/о -5.4 -6.7 91 -10 -10 1017.8 804.3
08 14.11 СЗ 2-3
{4}
н/о н/о -4.5 -6.7 85 -9 -9 1016.9 804.3
09 14.11 В 2-5
{5}
н/о н/о -4.5 -6.6 85 -9 -9 1017.6 804.6
10 14.11 ЮЗ 8-4
{10}
н/о н/о -0.8 -15.0 33 -7 -7 1014.1 804.3
11 14.11 Ю 6-8
{10}
н/о н/о -2.1 -14.8 37 -8 -8 1015.1 804.3
12 14.11 ЮЗ 9-9
{16}
н/о н/о +0.2 -7.7 55 -7 -7 1013.2 804.3
13 14.11 З 5-14
{17}
н/о н/о -4.0 -7.2 78 -11 -11 1016.7 804.5
14 14.11 Ю 6-9
{9}
н/о н/о -4.7 -5.7 93 -13 -13 1017.7 804.5
15 14.11 З 6-8
{9}
н/о н/о -1.7 -5.9 73 -9 -9 1014.7 804.3
16 14.11 ЮЗ 6-9
{14}
н/о н/о -0.6 -4.2 77 -7 -7 1013.6 804.2
17 14.11 Ю 7-12
{12}
н/о н/о -2.9 -3.7 94 -11 -11 1015.8 804.3
18 14.11 ЮЗ 7-9
{17}
н/о н/о -1.5 -4.7 79 -9 -9 1014.7 804.4 -5.4 +0.3
19 14.11 Ю 4-8
{14}
н/о н/о -1.6 -2.3 95 -8 -8 1014.7 804.4
20 14.11 ЮЗ 11-10
{16}
н/о н/о +0.5 -1.6 86 -8 -8 1012.8 804.2
21 14.11 ЮЗ 4-16
{20}
н/о н/о +1.1 -0.8 87 -4 -4 1012.6 804.5
22 14.11 З 3-9
{17}
н/о н/о +1.0 0.0 93 -4 -4 1013.0 804.7
23 14.11 З 4-8
{16}
н/о н/о +1.2 +0.1 92 -4 -4 1012.7 804.7
00 15.11 ЮЗ 10-16
{20}
н/о н/о +1.7 +0.8 94 -6 -6 1012.5 804.8
01 15.11 ЮЗ 11-19
{24}
н/о н/о +2.0 +1.3 95 -6 -6 1012.7 805.1
02 15.11 ЮЗ 12-21
{26}
н/о н/о +2.8 +2.3 97 -5 -5 1012.2 805.3
03 15.11 ЮЗ 9-20
{22}
н/о н/о +3.0 +2.6 97 -4 -4 1012.8 805.9
04 15.11 ЮЗ 12-26
{26}
н/о н/о +4.2 +2.7 90 -3 -3 1012.3 806.3
05 15.11 ЮЗ 12-21
{22}
н/о н/о +4.0 +2.7 91 -3 -3 1012.7 806.5
06 15.11 ЮЗ 17-23
{31}
н/о н/о +3.2 +2.1 92 -6 -6 1013.6 806.6 -2.1 +4.4 13
07 15.11 ЮЗ 14-28
{29}
н/о н/о +3.0 +0.9 86 -5 -5 1015.0 807.6
08 15.11 З 13-25
{25}
н/о н/о +3.1 +1.0 86 -5 -5 1015.7 808.3
09 15.11 ЮЗ 14-22
{28}
н/о н/о +3.3 +0.8 84 -5 -5 1015.6 808.4
10 15.11 ЮЗ 13-24
{29}
н/о н/о +3.8 +1.5 85 -4 -4 1016.4 809.2
11 15.11 ЮЗ 12-24
{24}
н/о н/о +3.7 +1.7 87 -4 -4 1016.8 809.5
12 15.11 ЮЗ 10-19
{29}
н/о н/о +3.5 +1.4 86 -4 -4 1017.9 810.2
13 15.11 ЮЗ 7-19
{22}
н/о н/о +3.1 +1.0 86 -3 -3 1018.6 810.6
14 15.11 ЮЗ 4-20
{20}
н/о н/о +2.7 +0.3 84 -2 -2 1019.6 811.1
15 15.11 ЮЗ 9-18
{23}
н/о н/о +2.9 -1.3 74 -4 -4 1019.4 811.1
16 15.11 ЮЗ 6-15
{15}
н/о н/о +2.7 -1.6 73 -3 -3 1019.9 811.3
17 15.11 ЮЗ 5-8
{10}
н/о н/о +2.3 -0.9 79 -3 -3 1020.4 811.5
18 15.11 ЮЗ 8-7
{23}
н/о н/о +2.4 -3.8 64 -4 -4 1019.6 810.9 +1.7 +3.9
19 15.11 ЮЗ 13-13
{17}
н/о н/о +3.6 -14.9 24 -3 -3 1017.7 810.3
20 15.11 ЮЗ 9-21
{21}
н/о н/о +3.0 -11.1 35 -3 -3 1019.4 811.2
21 15.11 З 5-13
{15}
н/о н/о +2.6 -9.8 40 -2 -2 1019.5 811.1
22 15.11 ЮЗ 7-9
{16}
н/о н/о +2.4 -13.0 31 -3 -3 1020.2 811.3
23 15.11 ЮЗ 9-14
{17}
н/о н/о +2.5 -12.5 32 -4 -4 1020.0 811.3
00 16.11 ЮЗ 8-14
{21}
н/о н/о +2.1 -13.4 31 -4 -4 1020.8 811.7
01 16.11 ЮЗ 4-23
{23}
н/о н/о +1.8 -9.3 44 -2 -2 1021.5 812.1
02 16.11 ЮЗ 11-9
{24}
н/о н/о +2.9 -7.8 45 -4 -4 1020.4 812.0
03 16.11 ЮЗ 15-25
{29}
н/о н/о +3.4 -3.6 60 -4 -4 1020.2 812.0
04 16.11 ЮЗ 22-29
{35}
н/о н/о +4.0 -3.4 58 -5 -5 1018.5 811.0
05 16.11 ЮЗ 19-32
{32}
н/о н/о +3.7 -3.3 60 -5 -5 1019.7 811.9
06 16.11 ЮЗ 15-29
{35}
н/о н/о +3.6 -3.0 62 -4 -4 1020.1 812.0 +0.4 +4.7 9
07 16.11 ЮЗ 15-26
{30}
н/о н/о +3.3 -2.8 64 -5 -5 1021.5 812.8
08 16.11 ЮЗ 12-30
{30}
н/о н/о +2.3 -1.5 76 -6 -6 1023.3 813.7
09 16.11 ЮЗ 20-24
{37}
н/о н/о +2.6 -1.1 77 -7 -7 1023.5 814.1
10 16.11 ЮЗ 17-32
{32}
н/о н/о +2.3 -1.0 79 -7 -7 1024.2 814.6
11 16.11 ЮЗ 13-25
{30}
н/о н/о +2.3 -0.4 82 -6 -6 1024.6 814.8
12 16.11 ЮЗ 16-21
{37}
н/о н/о +2.1 +0.7 90 -7 -7 1025.4 815.3
13 16.11 ЮЗ 14-26
{30}
н/о н/о +2.6 +0.4 85 -6 -6 1025.2 815.4
14 16.11 ЮЗ 15-29
{29}
н/о н/о +2.4 +0.3 86 -6 -6 1026.7 816.6
15 16.11 ЮЗ 14-25
{31}
н/о н/о +1.8 +0.4 90 -7 -7 1027.4 816.8
16 16.11 ЮЗ 12-20
{25}
н/о н/о +1.6 +0.2 90 -7 -7 1028.2 817.2
17 16.11 ЮЗ 11-19
{22}
н/о н/о +1.6 0.0 89 -6 -6 1029.0 817.8
18 16.11 З 10-18
{31}
н/о н/о +1.0 +0.2 94 -7 -7 1030.8 818.8 +0.6 +4.1
19 16.11 З 8-18
{18}
н/о н/о -0.2 -0.2 100 -8 -8 1032.7 819.6
20 16.11 З 12-14
{17}
н/о н/о +0.6 +0.6 100 -8 -8 1032.3 819.9
21 16.11 З 11-17
{17}
н/о н/о +0.9 0.0 94 -7 -7 1032.7 820.4
22 16.11 ЮЗ 9-17
{18}
н/о н/о +1.7 -1.1 82 -6 -6 1032.6 820.7
23 16.11 З 8-15
{15}
н/о н/о +1.6 -1.0 83 -5 -5 1033.1 821.3
00 17.11 З 8-9
{18}
н/о н/о +1.3 -0.6 87 -6 -6 1033.9 821.7
01 17.11 З 4-10
{12}
н/о н/о +1.4 -1.5 81 -4 -4 1034.9 822.2
02 17.11 З 7-9
{11}
н/о н/о +2.5 -2.3 71 -4 -4 1034.1 822.5
03 17.11 З 6-11
{11}
н/о н/о +2.5 -2.5 70 -3 -3 1034.4 822.7
04 17.11 З 5-11
{11}
н/о н/о +3.3 -2.8 64 -2 -2 1033.6 822.8
05 17.11 З 7-8
{10}
н/о н/о +3.7 -4.9 53 -2 -2 1033.9 823.1
06 17.11 З 7-9
{12}
н/о н/о +3.3 -4.5 57 -2 -2 1034.4 823.3 -0.2 +4.3 8
07 17.11 З 9-10
{11}
н/о н/о +3.2 -4.5 57 -3 -3 1035.4 823.9
08 17.11 З 8-11
{12}
н/о н/о +2.7 -4.1 61 -3 -3 1036.2 824.3
09 17.11 З 8-11
{11}
н/о н/о +3.6 -3.7 59 -2 -2 1036.0 824.8
10 17.11 З 9-11
{12}
н/о н/о +3.6 -4.4 56 -3 -3 1036.2 824.9
11 17.11 З 9-12
{12}
н/о н/о +4.1 -2.0 64 -2 -2 1036.3 825.3
12 17.11 З 9-10
{12}
н/о н/о +3.9 -1.7 67 -2 -2 1036.2 825.1
13 17.11 З 9-11
{11}
н/о н/о +3.2 -0.9 74 -3 -3 1036.8 825.1
14 17.11 З 8-10
{10}
н/о н/о +2.8 -2.0 71 -4 -4 1037.5 825.4
15 17.11 З 6-9
{9}
н/о н/о +2.0 -2.2 74 -4 -4 1038.3 825.5
16 17.11 З 5-6
{8}
н/о н/о +1.6 -4.1 66 -4 -4 1038.4 825.4
17 17.11 З 5-7
{8}
н/о н/о +2.4 -2.5 70 -3 -3 1038.1 825.7
18 17.11 З 5-7
{11}
н/о н/о +2.2 -6.2 54 -3 -3 1038.4 825.7 +1.4 +4.3
19 17.11 СЗ 3-7
{7}
н/о н/о +1.6 -5.0 61 -2 -2 1038.9 825.8
20 17.11 З 1-4
{4}
н/о н/о +1.6 -10.6 40 +1 +1 1039.2 825.9
21 17.11 В 1-2
{4}
н/о н/о +1.6 -6.9 53 +1 +1 1039.0 825.8
22 17.11 З 6-3
{7}
н/о н/о +2.2 -18.9 19 -3 -3 1038.1 825.5
23 17.11 СЗ 3-8
{8}
н/о н/о +2.9 -18.6 19 0 0 1038.0 825.9
00 18.11 В 1-4
{8}
н/о н/о +2.5 -16.1 24 +2 +2 1038.5 826.0
01 18.11 ЮВ 1-1
{1}
н/о н/о +3.0 -18.3 19 +3 +3 1038.2 826.1
02 18.11 ЮВ 2-1
{3}
н/о н/о +3.1 -18.9 18 +1 +1 1037.4 825.6
03 18.11 Ю 3-3
{4}
н/о н/о +1.5 -17.2 23 -2 -2 1038.8 825.6
04 18.11 Ю 1-5
{6}
н/о н/о +1.7 -15.6 26 +1 +1 1038.7 825.6
05 18.11 Ю 3-3
{3}
н/о н/о +1.1 -16.6 25 -2 -2 1039.3 825.6
06 18.11 штиль 0-2
{6}
н/о н/о +1.9 -16.7 24 +2 +2 1038.7 825.6 +0.5 +3.2 8
07 18.11 Ю 4-1
{5}
н/о н/о +2.1 -19.4 19 -2 -2 1038.6 825.8
08 18.11 Ю 6-6
{6}
н/о н/о +1.2 -11.7 38 -4 -4 1039.1 825.7
09 18.11 Ю 3-7
{7}
н/о н/о +2.5 -11.6 34 -1 -1 1038.5 825.9
10 18.11 Ю 2-4
{6}
н/о н/о +3.6 -11.9 31 +2 +2 1037.8 826.0
11 18.11 -2
{3}
н/о н/о +3.6 -15.5 23 1037.4 825.9
12 18.11 С 1-3
{7}
н/о н/о +3.7 -13.2 28 +3 +3 1037.1 825.6
13 18.11 штиль 0
{1}
н/о н/о +3.0 -13.1 29 +3 +3 1037.4 825.4
14 18.11 СВ 1-1
{2}
н/о н/о +1.9 -13.0 32 +1 +1 1038.2 825.3
15 18.11 штиль 0-1
{2}
н/о н/о +1.6 -14.4 29 +2 +2 1037.9 825.0
16 18.11 СЗ 3-1
{3}
н/о н/о +2.4 -14.7 27 -1 -1 1037.1 824.8
17 18.11 штиль 0-3
{3}
н/о н/о +2.7 -20.2 17 +3 +3 1036.9 824.8
18 18.11 штиль 0-1
{3}
н/о н/о +3.3 -19.3 17 +4 +4 1036.0 824.5 +0.7 +4.5
19 18.11 штиль 0-1
{1}
н/о н/о +2.5 -18.1 20 +3 +3 1036.6 824.5
20 18.11 ЮВ 1-1
{2}
н/о н/о +3.0 -14.8 26 +3 +3 1035.8 824.2
21 18.11 ЮВ 2-1
{3}
н/о н/о +2.3 -12.5 33 0 0 1036.1 824.0
22 18.11 ЮВ 3-2
{4}
н/о н/о +2.1 -14.5 28 -1 -1 1036.2 823.9
23 18.11 ЮВ 4-3
{4}
н/о н/о +1.2 -14.1 31 -3 -3 1036.7 823.7
00 19.11 ЮВ 3-4
{4}
н/о н/о +1.8 -14.2 29 -1 -1 1035.8 823.4

 

Местоположение метеостанции Juvvasshoe (Норвегия): широта 61.68 долгота 8.37 высота над уровнем моря 1894 м.

В архиве по умолчанию представлена погода в Juvvasshoe за последнюю неделю. Архивные данные за месяц целиком и за предыдущие месяцы, начиная с января 2011 года, Вы можете получить, выбрав интересующий диапазон дат из раскрывающегося списка и нажав кнопку "Ввод!".


*Определитесь, кто Вы:
робот инопланетянин человек

Внимание! Время в таблицах - всемирное. Для получения местного времени необходимо прибавить поправку, которая в Juvvasshoe равна 1 ч.

Смотрите также архив погоды в соседних городах и на ближайших метеорологических станциях:

Погода в Sognefjellhytta (Норвегия) (23 км)
Погода в Brata (Норвегия) (36 км)
Погода в Grotli III (Норвегия) (53 км)
Погода в Beitostolen II (Норвегия) (56 км)
Погода в Skabu (Норвегия) (57 км)
Погода в Filefjell-Kyrkjestolane (Норвегия) (57 км)
Погода в Dombas-Nordigard (Норвегия) (59 км)
Погода в Bjorli (Норвегия) (65 км)
Погода в Fokstugu (Норвегия) (68 км)
Погода в Loken i Volbu (Норвегия) (72 км)

Пояснения к столбцам:

Ветер - указаны скорость ветра в м/с - средняя за 10 мин, порывы в срок и между сроками (в фигурных скобках) и направление, откуда дует ветер: С - северный, СВ - северо-восточный, В - восточный, ЮВ - юго-восточный, Ю - южный, ЮЗ - юго-западный, З - западный, СЗ - северо-западный.
Видимость - горизонтальная дальность видимости в метрах или километрах. При видимости от 1 до 10 км при отсутствии осадков обычно наблюдается дымка, при ухудшении видимости до 1 км и менее - туман. В сухую погоду видимость может ухудшаться дымом, пылью или мглою.
Явления - указаны атмосферные явления, наблюдавшиеся в срок или в последний час перед сроком; фигурными скобками обозначены явления, наблюдавшиеся между сроками (за 1-3 часа до срока); квадратными скобками обозначены град или гололедные отложения с указанием их диаметра в мм.
Облачность - указаны через наклонную черту общая и нижняя облачность в баллах и высота нижней границы облаков в метрах; квадратными скобками обозначены формы облаков: Ci - перистые, Cs - перисто-слоистые, Cc - перисто-кучевые, Ac - высококучевые, As - высокослоистые, Sc - слоисто-кучевые, Ns - слоисто-дождевые, Cu - кучевые, Cb - кучево-дождевые. Подробнее классификацию облаков см. в Атласе облаков (PDF).
T - Температура воздуха - температура, измеренная на высоте 2 м над землей.
Td - Температура точки росы - температура, при понижении до которой содержащийся в воздухе водяной пар достигнет насыщения.
f - Относительная влажность воздуха - влажноcть воздуха, измеренная на высоте 2 м над землей.
Te - Эффективная температура - температура, которую ощущает одетый по сезону человек в тени. Характеристика душности погоды. При расчете учитывается влияние влажности воздуха и скорости ветра на теплоощущения человека.
Tes - Эффективная температура на солнце - температура, которую ощущает человек, с поправкой на солнечный нагрев. Характеристика знойности погоды. Зависит от высоты солнца над горизонтом, облачности и скорости ветра. Ночью, в пасмурную погоду, а также при ветре 12 м/с и более поправка равна нулю.
P - Атмосферное давление - приведенное к уровню моря атмосферное давление.
Po - Атмосферное давление - измеренное на уровне метеостанции атмосферное давление.
Tmin - Минимальная температура - минимум температуры воздуха на высоте 2 м над землей.
Tmax - Максимальная температура - максимум температуры воздуха на высоте 2 м над землей.
R - Количество осадков - Количество выпавших осадков за период времени, мм. При наведении курсора мыши на число - период времени, за который выпало указанное количество осадков.
R24 - Количество осадков - Количество выпавших осадков за 24 часа, мм.
S - Снежный покров - Высота снежного покрова, см. При наведении курсора мыши на число - состояние снежного покрова и степень покрытия местности в баллах.